HULIANWANG DIGUI-159

Last updated on Sun Apr 12 2026 00:02:06 GMT+0000 (Coordinated Universal Time)

1 68133U 26047E 26101.04812893 -.00000108 00000+0 33943-4 0 9990 2 68133 49.9958 300.6167 0000522 87.1387 272.9564 13.72464839 4087
UTC large
Height (km)
Speed (km/s)
/
Latitude / Longitude
Inclination (degrees)
Orbital Period (minutes)
Azimuth
Elevation
Range (km)
Doppler Factor

Next 0 passes for location: London (51.5072 / 0.1276)

Sorry there are no passes over London.
HULIANWANG DIGUI-159